Location: San Vito
(41.8833°N, 12.9833°E)
Time: 20:20:01
(UTC+00:00)

Cosmos 1151 Rocket - Pass Details

Date: 17 November 2019
Orbit: 593 x 615 km, 82.5° (Epoch: 05 December)

Event Time Altitude Azimuth Distance (km) Brightness Sun altitude
Rises 04:23:38 0° 354° (N) 2,891 6.3 -17.8°
Reaches altitude 10° 04:25:53 10° 357° (N) 1,979 5.5 -17.4°
Maximum altitude 04:30:15 69° 81° (E) 656 3.3 -16.6°
Drops below altitude 10° 04:34:33 10° 165° (SSE) 1,952 6.0 -15.8°
Sets 04:36:46 0° 168° (SSE) 2,847 6.8 -15.4°
